DW6614 Weather Reports


time (UTC)temp
C
wind
direction
speed
KPH
gust
KPH
rain 1hr
cm
rain 24hr
cm
rain mn
cm
humidity
%
barometer
mb
20260502151535 -17 101 6.4 0.0 0.00 0.00 0.00 1010.1
20260502123050 -17 115 0.0 0.0 0.00 0.00 0.00 1008.7
20260502121550 -17 115 0.0 0.0 0.00 0.00 0.00 1008.6
20260502114534 -17 78 0.0 0.0 0.00 0.00 0.00 1008.3
20260502113030 -17 84 4.8 0.0 0.00 0.00 0.00 1008.2
20260502111526 -17 83 4.8 0.0 0.00 0.00 0.00 1008.1
20260502110026 -17 90 8.0 0.0 0.00 0.00 0.00 1008.1
20260502104517 -17 93 6.4 0.0 0.00 0.00 0.00 1008.2
20260502103012 -17 90 3.2 0.0 0.00 0.00 0.00 1008.0
20260502101512 -17 88 4.8 0.0 0.00 0.00 0.00 1008.2
20260502071516 -17 75 3.2 0.0 0.00 0.00 0.00 1008.1
20260502070019 -17 84 1.6 0.0 0.00 0.00 0.00 1008.0
20260502064506 -17 83 0.0 0.0 0.00 0.00 0.00 1007.9
20260502063005 -17 83 0.0 0.0 0.00 0.00 0.00 1007.9
20260502061558 -17 83 0.0 0.0 0.00 0.00 0.00 1007.7
20260502060055 -17 82 1.6 0.0 0.00 0.00 0.00 1007.5
20260502054551 -17 88 3.2 0.0 0.00 0.00 0.00 1007.4
20260502053045 -17 47 1.6 0.0 0.00 0.00 0.00 1007.3
20260502051540 -17 98 1.6 0.0 0.00 0.00 0.00 1007.2
20260502050036 -17 79 1.6 0.0 0.00 0.00 0.00 1007.1
20260502044532 -17 44 1.6 0.0 0.00 0.00 0.00 1006.8
20260502043027 -17 59 0.0 0.0 0.00 0.00 0.00 1006.8
20260502041522 -17 60 1.6 0.0 0.00 0.00 0.00 1006.6
20260502040018 -17 87 0.0 0.0 0.00 0.00 0.00 1006.4
20260502034514 -17 106 6.4 0.0 0.00 0.00 0.00 1006.3
20260502033010 -17 109 8.0 0.0 0.00 0.00 0.00 1006.0
20260502031505 -17 88 6.4 0.0 0.00 0.00 0.00 1005.8
20260502030001 -17 88 6.4 0.0 0.00 0.00 0.00 1005.6
20260502024557 -17 86 11.3 0.0 0.00 0.00 0.00 1005.5
20260502023055 -17 82 12.9 0.0 0.00 0.00 0.00 1005.3
20260502021548 -17 58 12.9 0.0 0.00 0.00 0.00 1005.2
20260502020045 -17 97 12.9 0.0 0.00 0.00 0.00 1004.9
20260502014548 -17 82 11.3 0.0 0.00 0.00 0.00 1004.8
20260502013047 -17 62 12.9 0.0 0.00 0.00 0.00 1004.6
20260502011543 -17 66 14.5 0.0 0.00 0.00 0.00 1004.6
20260502010050 -17 64 12.9 0.0 0.00 0.00 0.00 1004.5
20260502004601 -17 100 12.9 0.0 0.00 0.00 0.00 1004.5
20260502003041 -17 91 16.1 0.0 0.00 0.00 0.00 1004.5
20260502001541 -17 83 12.9 0.0 0.00 0.00 0.00 1004.5
20260502000051 -17 74 14.5 0.0 0.00 0.00 0.00 1004.6
20260501234540 -17 84 14.5 0.0 0.00 0.00 0.00 1004.6
20260501233042 -17 87 14.5 0.0 0.00 0.00 0.00 1004.6
20260501231541 -17 53 11.3 0.0 0.00 0.00 0.00 1004.8
20260501230039 -17 83 17.7 0.0 0.00 0.00 0.00 1004.9
20260501224540 -17 64 12.9 0.0 0.00 0.00 0.00 1005.0
20260501223038 -17 123 14.5 0.0 0.00 0.00 0.00 1005.3
20260501221535 -17 63 12.9 0.0 0.00 0.00 0.00 1005.4
20260501220031 -17 46 16.1 0.0 0.00 0.00 0.00 1005.6
20260501214526 -17 53 16.1 0.0 0.00 0.00 0.00 1005.8
20260501213022 -17 69 16.1 0.0 0.00 0.00 0.00 1006.0
20260501211525 -17 36 11.3 0.0 0.00 0.00 0.00 1006.3
20260501210013 -17 53 12.9 0.0 0.00 0.00 0.00 1006.5
20260501204509 -17 51 14.5 0.0 0.00 0.00 0.00 1006.6
20260501203005 -17 19 11.3 0.0 0.00 0.00 0.00 1006.6
20260501201601 -17 116 12.9 0.0 0.00 0.00 0.00 1006.8
20260501200056 -17 56 14.5 0.0 0.00 0.00 0.00 1006.9
20260501194556 -17 34 16.1 0.0 0.00 0.00 0.00 1007.0
20260501193047 -17 71 12.9 0.0 0.00 0.00 0.00 1007.2
20260501191542 -17 58 14.5 0.0 0.00 0.00 0.00 1007.4
20260501190038 -17 57 12.9 0.0 0.00 0.00 0.00 1007.7
20260501184534 -17 74 14.5 0.0 0.00 0.00 0.00 1007.8
20260501183030 -17 80 14.5 0.0 0.00 0.00 0.00 1008.0
20260501181525 -17 110 14.5 0.0 0.00 0.00 0.00 1008.0
20260501180029 -17 84 16.1 0.0 0.00 0.00 0.00 1008.2
20260501174521 -17 64 16.1 0.0 0.00 0.00 0.00 1008.3
20260501173012 -17 62 17.7 0.0 0.00 0.00 0.00 1008.3
20260501171507 -17 28 17.7 0.0 0.00 0.00 0.00 1008.4
20260501170005 -17 87 17.7 0.0 0.00 0.00 0.00 1008.4
20260501164613 -17 26 17.7 0.0 0.00 0.00 0.00 1008.4
20260501163105 -17 63 19.3 0.0 0.00 0.00 0.00 1008.4
20260501161553 -17 99 17.7 0.0 0.00 0.00 0.00 1008.4
20260501160048 -17 61 17.7 0.0 0.00 0.00 0.00 1008.2
20260501154611 -17 90 16.1 0.0 0.00 0.00 0.00 1008.1